{"data":{"norad_id":64022,"intl_designator":"2025-102A","name":"STARLINK-34051","alt_names":[],"object_type":"PAYLOAD","status":"ACTIVE","operator":null,"country":"US","launch_date":"2025-05-16","launch_site_code":"AFWTR","launch_vehicle":null,"mission":null,"orbit_class":"UNKNOWN","rcs_meters":null,"size_class":null,"mass_kg":null,"dimensions":null,"purposes":["comms"],"wikipedia_slug":null,"has_3d_model":false,"image_url":null,"decayed_at":null,"tle_current":{"epoch":"2026-09-20T22:49:24.290112Z","epoch_age_seconds":104613,"freshness":"FRESH","line1":"1 64022U 25102A   26263.95097558  .00010166  00000+0  35759-3 0  9996","line2":"2 64022  69.9992 340.0143 0003472 269.4137  90.6640 15.29582405 75258","mean_motion":15.29582405,"eccentricity":0.0003472,"inclination_deg":69.9992,"raan_deg":340.0143,"arg_perigee_deg":269.4137,"mean_anomaly_deg":90.664,"bstar":0.00035759,"rev_number":7525,"period_min":94.143342345782,"perigee_km":474.67959290363,"apogee_km":479.43984150406,"semimajor_km":6855.1967172038,"source":"CELESTRAK","updated_at":"2026-09-21T09:00:35.185639Z"}}}